Weather History for Kendall, FL

Change the Weather History Date:

Friday, November 30, 2012

  Actual Average Record
Temperature  
Mean Temperature 72 °F -  
Max Temperature 75 °F 76 °F 83 °F (1990)
Min Temperature 68 °F 62 °F 48 °F (2002)
Cooling Degree Days 6    
Growing Degree Days 22 (Base 50)    
Moisture  
Dew Point 63 °F    
Average Humidity 76    
Maximum Humidity 96    
Minimum Humidity 54    
Precipitation  
Precipitation 0.41 in - - ()
Sea Level Pressure  
Sea Level Pressure 30.15 in    
Wind  
Wind Speed 12 mph (ENE)    
Max Wind Speed 22 mph    
Max Gust Speed 28 mph    
Visibility 9 miles    
Events Rain    
Averages and records for this station are not official NWS values.
T = Trace of Precipitation, MM = Missing Value Source: NWS Daily Summary

Daily Weather History Graph

Daily Weather History Graph

Search for Another Location

Airport:

Trip Planner

Search our weather history database for the weather conditions in past years. The results will help you decide how hot, cold, wet, or windy it might be!

Date:

Astronomy

Nov. 30, 2012 Rise Set
Actual Time 6:50 AM EST 5:30 PM EST
Civil Twilight 6:25 AM EST 5:55 PM EST
Nautical Twilight 5:57 AM EST 6:23 PM EST
Astronomical Twilight 5:29 AM EST 6:51 PM EST
Moon 7:22 PM EST (11/30) 8:22 AM EST (11/30)
Length of Visible Light 11h 29m
Length of Day
10h 39m
Waning Gibbous, 96% of the Moon is Illuminated
Nov 30
Waning Gibbous
Dec 6
Last Quarter
Dec 13
New
Dec 20
First Quarter
Dec 28
Full

Hourly Weather History & Observations

Time (EST) Temp. Dew Point Humidity Pressure Visibility Wind Dir Wind Speed Gust Speed Precip Events Conditions
12:53 AM 73.0 °F 61.0 °F 66% 30.16 in 10.0 mi ENE 11.5 mph - N/A   Overcast
1:53 AM 73.0 °F 61.0 °F 66% 30.15 in 10.0 mi ENE 11.5 mph - N/A   Overcast
2:53 AM 72.0 °F 61.0 °F 68% 30.14 in 10.0 mi ENE 12.7 mph - N/A   Overcast
3:53 AM 70.0 °F 64.9 °F 84% 30.15 in 6.0 mi East 19.6 mph 27.6 mph 0.03 in Rain Rain
4:39 AM 69.8 °F 66.2 °F 88% 30.14 in 3.0 mi East 16.1 mph - 0.19 in Rain Heavy Rain
4:46 AM 68.0 °F 66.2 °F 94% 30.14 in 2.5 mi NE 12.7 mph - 0.27 in Rain Heavy Rain
4:53 AM 68.0 °F 66.9 °F 96% 30.14 in 5.0 mi NE 11.5 mph - 0.28 in Rain Light Rain
5:50 AM 68.0 °F 66.2 °F 94% 30.15 in 4.0 mi NNE 8.1 mph - 0.10 in Rain Rain
5:53 AM 68.0 °F 66.9 °F 96% 30.15 in 5.0 mi NNE 8.1 mph - 0.10 in Rain Light Rain
6:53 AM 69.1 °F 66.0 °F 90% 30.17 in 10.0 mi NE 6.9 mph - 0.00 in Rain Light Rain
7:53 AM 70.0 °F 66.0 °F 87% 30.18 in 10.0 mi NE 4.6 mph - 0.00 in   Overcast
8:53 AM 72.0 °F 66.9 °F 84% 30.20 in 10.0 mi NE 8.1 mph - N/A   Overcast
9:53 AM 71.1 °F 66.0 °F 84% 30.21 in 10.0 mi NE 10.4 mph - N/A   Overcast
10:53 AM 71.1 °F 64.0 °F 78% 30.21 in 10.0 mi NE 10.4 mph - 0.00 in   Overcast
11:53 AM 73.9 °F 61.0 °F 64% 30.18 in 10.0 mi ENE 15.0 mph - N/A   Overcast
12:53 PM 75.9 °F 59.0 °F 56% 30.15 in 10.0 mi ENE 21.9 mph 27.6 mph N/A   Mostly Cloudy
1:53 PM 75.9 °F 59.0 °F 56% 30.13 in 10.0 mi ENE 20.7 mph 26.5 mph N/A   Partly Cloudy
2:53 PM 75.9 °F 57.9 °F 54% 30.13 in 10.0 mi East 18.4 mph - N/A   Clear
3:53 PM 73.9 °F 59.0 °F 59% 30.13 in 10.0 mi East 17.3 mph 23.0 mph N/A   Clear
4:53 PM 73.0 °F 60.1 °F 64% 30.14 in 10.0 mi East 10.4 mph - N/A   Clear
5:53 PM 72.0 °F 60.1 °F 66% 30.13 in 10.0 mi East 8.1 mph - N/A   Clear
6:53 PM 71.6 °F 60.8 °F 69% 30.14 in 10.0 mi ENE 6.9 mph - N/A   Mostly Cloudy
7:53 PM 71.6 °F 60.8 °F 69% 30.14 in 10.0 mi East 6.9 mph - N/A   Mostly Cloudy
8:53 PM - - N/A% 30.16 in 10.0 mi ENE 6.9 mph - N/A   Partly Cloudy
9:53 PM - - N/A% 30.16 in 10.0 mi NE 6.9 mph - N/A   Overcast
10:53 PM 71.1 °F 64.9 °F 81% 30.15 in 10.0 mi NNE 5.8 mph - N/A   Overcast
11:53 PM 70.0 °F 64.9 °F 84% 30.14 in 10.0 mi NNE 11.5 mph - N/A   Partly Cloudy